When you browse on this site, cookies collect data to enhance your experience and personalize the content and advertising you see.
Visit our Privacy Policy to learn more. By continuing to use the site, you agree to this use of cookies and data.
  • In Spain
  • List of Countries
  • For 7 days
  • Water Temperature
  • Satellite Maps
  • Weather Map
  • Weather Widgets
  • user-avatar
    Login

    Hourly Weather Agra

    Today, 17 February, Sunday

    Time Temperature Precipitation Wind Pressure Humidity
    00:00 +13°C° 0 mm 2 mps 747 mmHg 82%
    01:00 +13°C° 0 mm 2 mps 746 mmHg 84%
    02:00 +13°C° 0 mm 2 mps 746 mmHg 85%
    03:00 +12°C° 0 mm 2 mps 746 mmHg 86%
    04:00 +12°C° 0 mm 2 mps 746 mmHg 87%
    05:00 +11°C° 0 mm 3 mps 745 mmHg 91%
    06:00 +12°C° 0 mm 3 mps 746 mmHg 86%
    07:00 +13°C° 0 mm 3 mps 746 mmHg 81%
    08:00 +14°C° 0 mm 3 mps 746 mmHg 75%
    09:00 +17°C° 0 mm 4 mps 746 mmHg 66%
    10:00 +19°C° 0 mm 4 mps 746 mmHg 56%
    11:00 +21°C° 0 mm 4 mps 747 mmHg 47%
    12:00 +22°C° 0 mm 4 mps 746 mmHg 44%
    13:00 +24°C° 0 mm 3 mps 745 mmHg 41%
    14:00 +25°C° 0 mm 3 mps 744 mmHg 37%
    15:00 +24°C° 0 mm 3 mps 744 mmHg 41%
    16:00 +23°C° 0 mm 2 mps 743 mmHg 45%
    17:00 +21°C° 0 mm 2 mps 743 mmHg 50%
    18:00 +21°C° 0 mm 1 mps 743 mmHg 52%
    19:00 +20°C° 0 mm 1 mps 744 mmHg 54%
    20:00 +19°C° 0 mm 1 mps 744 mmHg 56%
    21:00 +18°C° 0 mm 1 mps 744 mmHg 58%
    22:00 +18°C° 0 mm 1 mps 744 mmHg 60%
    23:00 +16°C° 0 mm 1 mps 744 mmHg 62%

    Tomorrow, 18 February, Monday

    Time Temperature Precipitation Wind Pressure Humidity
    00:00 +16°C° 0 mm 1 mps 743 mmHg 63%
    01:00 +15°C° 0 mm 1 mps 743 mmHg 63%
    02:00 +15°C° 0 mm 1 mps 743 mmHg 64%
    03:00 +15°C° 0 mm 1 mps 743 mmHg 64%
    04:00 +14°C° 0 mm 1 mps 743 mmHg 64%
    05:00 +14°C° 0 mm 1 mps 743 mmHg 65%
    06:00 +15°C° 0 mm 1 mps 743 mmHg 62%
    07:00 +15°C° 0 mm 0 mps 744 mmHg 60%
    08:00 +16°C° 0 mm 0 mps 744 mmHg 57%
    09:00 +20°C° 0 mm 1 mps 745 mmHg 52%
    10:00 +21°C° 0 mm 1 mps 745 mmHg 47%
    11:00 +23°C° 0 mm 2 mps 745 mmHg 42%
    12:00 +23°C° 0 mm 2 mps 744 mmHg 41%
    13:00 +24°C° 0 mm 2 mps 743 mmHg 40%
    14:00 +25°C° 0 mm 2 mps 742 mmHg 39%
    15:00 +24°C° 0 mm 2 mps 742 mmHg 42%
    16:00 +24°C° 0 mm 2 mps 741 mmHg 44%
    17:00 +23°C° 0 mm 2 mps 741 mmHg 46%
    18:00 +23°C° 0 mm 2 mps 741 mmHg 45%
    19:00 +21°C° 0 mm 2 mps 742 mmHg 44%
    20:00 +20°C° 0 mm 2 mps 742 mmHg 43%
    21:00 +20°C° 0 mm 3 mps 742 mmHg 43%
    22:00 +19°C° 0 mm 3 mps 742 mmHg 43%
    23:00 +19°C° 0 mm 4 mps 742 mmHg 44%

    Day after tomorrow, 19 February, Tuesday

    Time Temperature Precipitation Wind Pressure Humidity
    00:00 +19°C° 0 mm 3 mps 742 mmHg 44%
    01:00 +18°C° 0 mm 3 mps 742 mmHg 45%
    02:00 +18°C° 0 mm 3 mps 742 mmHg 45%
    03:00 +18°C° 0 mm 3 mps 742 mmHg 48%
    04:00 +17°C° 0 mm 3 mps 742 mmHg 51%
    05:00 +16°C° 0 mm 2 mps 742 mmHg 54%
    06:00 +17°C° 0 mm 3 mps 743 mmHg 55%
    07:00 +18°C° 0 mm 3 mps 744 mmHg 56%
    08:00 +18°C° 0 mm 3 mps 744 mmHg 56%
    09:00 +21°C° 0 mm 2 mps 745 mmHg 52%
    10:00 +24°C° 0 mm 2 mps 745 mmHg 47%
    11:00 +26°C° 0 mm 2 mps 745 mmHg 42%
    12:00 +27°C° 0 mm 2 mps 745 mmHg 41%
    13:00 +28°C° 0 mm 1 mps 744 mmHg 39%
    14:00 +29°C° 0 mm 1 mps 744 mmHg 37%
    15:00 +28°C° 0 mm 2 mps 744 mmHg 41%
    16:00 +27°C° 0 mm 3 mps 744 mmHg 46%
    17:00 +26°C° 0 mm 3 mps 744 mmHg 50%
    18:00 +25°C° 0 mm 3 mps 745 mmHg 51%
    19:00 +23°C° 0 mm 4 mps 745 mmHg 53%
    20:00 +22°C° 0 mm 4 mps 746 mmHg 54%
    21:00 +21°C° 0 mm 4 mps 746 mmHg 56%
    22:00 +20°C° 0 mm 3 mps 746 mmHg 59%
    23:00 +20°C° 0 mm 3 mps 746 mmHg 61%

    20 February, Wednesday

    Time Temperature Precipitation Wind Pressure Humidity
    00:00 +19°C° 0 mm 3 mps 746 mmHg 63%
    01:00 +19°C° 0 mm 3 mps 746 mmHg 64%
    02:00 +18°C° 0 mm 3 mps 746 mmHg 65%
    03:00 +18°C° 0 mm 2 mps 746 mmHg 67%
    04:00 +17°C° 0 mm 2 mps 745 mmHg 70%
    05:00 +17°C° 0 mm 2 mps 745 mmHg 72%
    06:00 +18°C° 0 mm 2 mps 746 mmHg 70%
    07:00 +19°C° 0 mm 1 mps 747 mmHg 68%
    08:00 +20°C° 0 mm 1 mps 748 mmHg 66%
    09:00 +20°C° 0.2 mm 1 mps 748 mmHg 68%
    10:00 +20°C° 0.2 mm 2 mps 749 mmHg 69%
    11:00 +20°C° 0.2 mm 2 mps 749 mmHg 71%
    12:00 +21°C° 0 mm 2 mps 748 mmHg 65%
    13:00 +24°C° 0 mm 2 mps 748 mmHg 60%
    14:00 +25°C° 0 mm 1 mps 747 mmHg 54%
    15:00 +24°C° 0 mm 2 mps 747 mmHg 58%
    16:00 +24°C° 0 mm 2 mps 747 mmHg 62%
    17:00 +22°C° 0 mm 3 mps 746 mmHg 66%
    18:00 +21°C° 0 mm 3 mps 747 mmHg 69%
    19:00 +19°C° 0 mm 3 mps 747 mmHg 72%
    20:00 +18°C° 0 mm 2 mps 747 mmHg 76%
    21:00 +18°C° 0 mm 3 mps 747 mmHg 76%
    22:00 +18°C° 0 mm 3 mps 747 mmHg 76%
    23:00 +17°C° 0 mm 3 mps 747 mmHg 75%

    21 February, Thursday

    Time Temperature Precipitation Wind Pressure Humidity
    00:00 +17°C° 0 mm 3 mps 747 mmHg 74%
    01:00 +17°C° 0 mm 3 mps 747 mmHg 72%
    02:00 +17°C° 0 mm 3 mps 746 mmHg 70%
    03:00 +17°C° 0 mm 3 mps 746 mmHg 69%
    04:00 +16°C° 0 mm 3 mps 746 mmHg 68%
    05:00 +16°C° 0 mm 3 mps 746 mmHg 67%
    06:00 +17°C° 0 mm 3 mps 747 mmHg 65%
    07:00 +18°C° 0 mm 3 mps 747 mmHg 62%
    08:00 +19°C° 0 mm 3 mps 748 mmHg 59%
    09:00 +21°C° 0 mm 3 mps 748 mmHg 54%
    10:00 +24°C° 0 mm 3 mps 748 mmHg 49%
    11:00 +27°C° 0 mm 3 mps 748 mmHg 44%
    12:00 +28°C° 0 mm 2 mps 747 mmHg 42%
    13:00 +29°C° 0 mm 2 mps 746 mmHg 39%
    14:00 +30°C° 0 mm 1 mps 745 mmHg 37%
    15:00 +29°C° 0 mm 1 mps 745 mmHg 40%
    16:00 +29°C° 0 mm 2 mps 745 mmHg 44%
    17:00 +28°C° 0 mm 2 mps 745 mmHg 48%
    18:00 +26°C° 0 mm 2 mps 745 mmHg 50%
    19:00 +25°C° 0 mm 2 mps 746 mmHg 53%
    20:00 +23°C° 0 mm 2 mps 746 mmHg 55%
    21:00 +22°C° 0 mm 3 mps 746 mmHg 55%
    22:00 +22°C° 0 mm 3 mps 746 mmHg 54%
    23:00 +21°C° 0 mm 4 mps 746 mmHg 53%

    22 February, Friday

    Time Temperature Precipitation Wind Pressure Humidity
    00:00 +21°C° 0 mm 3 mps 746 mmHg 53%
    01:00 +20°C° 0 mm 3 mps 745 mmHg 53%
    02:00 +20°C° 0 mm 3 mps 745 mmHg 53%
    03:00 +20°C° 0 mm 2 mps 745 mmHg 54%
    04:00 +19°C° 0 mm 2 mps 745 mmHg 55%
    05:00 +20°C° 0 mm 1 mps 745 mmHg 55%
    06:00 +20°C° 0 mm 1 mps 746 mmHg 55%
    07:00 +20°C° 0 mm 2 mps 746 mmHg 55%
    08:00 +21°C° 0 mm 2 mps 747 mmHg 55%
    09:00 +24°C° 0 mm 2 mps 747 mmHg 50%
    10:00 +26°C° 0 mm 2 mps 747 mmHg 44%
    11:00 +28°C° 0 mm 2 mps 747 mmHg 39%
    12:00 +29°C° 0 mm 2 mps 746 mmHg 38%
    13:00 +29°C° 0 mm 2 mps 745 mmHg 37%
    14:00 +30°C° 0 mm 2 mps 744 mmHg 35%
    15:00 +29°C° 0 mm 2 mps 744 mmHg 39%
    16:00 +29°C° 0 mm 2 mps 744 mmHg 43%
    17:00 +28°C° 0 mm 2 mps 744 mmHg 47%
    18:00 +26°C° 0 mm 2 mps 744 mmHg 50%
    19:00 +25°C° 0 mm 3 mps 744 mmHg 52%
    20:00 +24°C° 0 mm 3 mps 745 mmHg 55%
    21:00 +22°C° 0 mm 3 mps 745 mmHg 57%
    22:00 +21°C° 0 mm 3 mps 745 mmHg 58%
    23:00 +21°C° 0 mm 3 mps 745 mmHg 60%
    Show more